Le nostre stazioni meteo in Italia

Pubblicità
Il mio iltempo24.it
Milano/Linate, Italia (16080): Temperatura & dewpoint: 19.05.2019 08:00:00 - 25.05.2019 08:00:00 (CEST)Milano/Linate, Italia (16080): velocità del vento: 19.05.2019 08:00:00 - 25.05.2019 08:00:00 (CEST)Milano/Linate, Italia (16080): direzione del vento: 19.05.2019 08:00:00 - 25.05.2019 08:00:00 (CEST)Milano/Linate, Italia (16080): reduced air pressure: 19.05.2019 08:00:00 - 25.05.2019 08:00:00 (CEST)Milano/Linate, Italia (16080): visibility: 19.05.2019 08:00:00 - 25.05.2019 08:00:00 (CEST)Milano/Linate, Italia (16080): precipitazioni: 19.05.2019 08:00:00 - 25.05.2019 08:00:00 (CEST)
Data & Tempo tt [°C] td [°C] ff [km/h] ff [kn] dd ppp [hPa] vv [km] rr [mm]
25.05.2019 08:00:00 - - - - - - - -
25.05.2019 07:00:00 16,0 13,0 2 1 - - 10 -
25.05.2019 06:00:00 14,0 12,0 4 2 S - 10 -
25.05.2019 05:00:00 14,9 12,1 5 3 ENE 1013,1 10 0,0
25.05.2019 04:00:00 16,0 12,0 5 3 O - 10 -
25.05.2019 03:00:00 16,0 13,0 8 4 O - 10 -
25.05.2019 02:00:00 15,0 13,2 4 2 S 1013,1 10 -
25.05.2019 01:00:00 16,0 12,0 2 1 - - 10 -
25.05.2019 00:00:00 17,0 13,0 5 3 O - 10 -
24.05.2019 23:00:00 19,5 11,2 9 5 NNE 1013,2 10 0,0
24.05.2019 22:00:00 20,0 13,0 4 2 - - 10 -
24.05.2019 21:00:00 22,0 12,0 15 8 E - 10 -
24.05.2019 20:00:00 24,0 12,3 8 4 SSO 1011,4 10 -
24.05.2019 19:00:00 26,0 14,0 8 4 SO - 10 -
24.05.2019 18:00:00 25,0 13,0 8 4 OSO - 10 -
24.05.2019 17:00:00 26,6 13,1 5 3 - 1011,6 10 0,0
24.05.2019 16:00:00 25,0 15,0 8 4 S - 10 -
24.05.2019 15:00:00 25,0 15,0 8 4 O - 10 -
24.05.2019 14:00:00 23,8 14,9 5 3 - 1013,1 10 -
24.05.2019 13:00:00 23,0 15,0 5 3 - - 10 -
24.05.2019 12:00:00 21,0 13,0 8 4 N - 10 -
24.05.2019 11:00:00 20,9 12,4 5 3 OSO 1014,6 10 0,0
24.05.2019 10:00:00 20,0 12,0 5 3 O - 10 -
24.05.2019 09:00:00 18,0 12,0 9 5 ONO - 10 -
24.05.2019 08:00:00 17,5 11,7 8 4 O 1014,7 10 -
24.05.2019 07:00:00 15,0 13,0 5 3 ONO - 10 -
24.05.2019 06:00:00 14,0 11,0 4 2 - - 10 -
24.05.2019 05:00:00 14,3 11,4 4 2 - 1013,9 10 0,0
24.05.2019 04:00:00 15,0 11,0 2 1 - - 10 -
24.05.2019 03:00:00 - - - - - - - -
24.05.2019 02:00:00 16,2 11,7 8 4 NNO 1014,2 10 -
24.05.2019 01:00:00 18,0 12,0 8 4 ONO - 10 -
24.05.2019 00:00:00 18,0 12,0 9 5 O - 10 -
23.05.2019 23:00:00 20,0 11,9 11 6 O 1014,1 10 0,0
23.05.2019 22:00:00 21,0 13,0 8 4 SO - 10 -
23.05.2019 21:00:00 22,0 13,0 2 1 - - 10 -
23.05.2019 20:00:00 24,6 11,8 5 3 O 1012,7 10 -
23.05.2019 19:00:00 25,0 11,0 5 3 OSO - 10 -
23.05.2019 18:00:00 26,0 12,0 8 4 - - 10 -
23.05.2019 17:00:00 25,6 11,7 8 4 - 1013,5 10 0,0
23.05.2019 16:00:00 25,0 14,0 9 5 S - 10 -
23.05.2019 15:00:00 24,0 13,0 5 3 - - 10 -
23.05.2019 14:00:00 23,4 14,7 9 5 SO 1015,3 10 -
23.05.2019 13:00:00 22,0 13,0 5 3 O - 10 -
23.05.2019 12:00:00 22,0 14,0 8 4 SO - 10 -
23.05.2019 11:00:00 20,2 13,0 5 3 - 1016,7 10 0,0
23.05.2019 10:00:00 19,0 14,0 4 2 - - 10 -
23.05.2019 09:00:00 18,0 14,0 4 2 - - 10 -
23.05.2019 08:00:00 16,1 14,0 4 2 - 1016,9 10 -
23.05.2019 07:00:00 14,0 14,0 2 1 - - 7 -
23.05.2019 06:00:00 - - - - - - - -
23.05.2019 05:00:00 14,0 13,8 5 3 NE 1016,3 - 0,0
23.05.2019 04:00:00 - - - - - - - -
23.05.2019 03:00:00 15,0 15,0 4 2 - - 10 -
23.05.2019 02:00:00 16,0 15,5 2 1 - 1016,0 10 -
23.05.2019 01:00:00 17,0 16,0 4 2 OSO - 10 -
23.05.2019 00:00:00 17,0 15,0 4 2 NNO - 10 -
22.05.2019 23:00:00 17,1 15,6 5 3 O 1015,7 10 0,0
22.05.2019 22:00:00 17,0 15,0 11 6 N - 10 -
22.05.2019 21:00:00 21,0 14,0 5 3 - - 8 -
22.05.2019 20:00:00 21,1 14,4 8 4 SO 1013,0 10 -
22.05.2019 19:00:00 23,0 13,0 4 2 - - 6 -
22.05.2019 18:00:00 26,0 11,0 8 4 - - 10 -
22.05.2019 17:00:00 25,1 11,4 5 3 O 1012,6 10 0,0
22.05.2019 16:00:00 25,0 13,0 8 4 - - 10 -
22.05.2019 15:00:00 24,0 13,0 9 5 SSO - 10 -
22.05.2019 14:00:00 22,9 11,7 9 5 O 1013,8 10 -
22.05.2019 13:00:00 22,0 13,0 5 3 - - 10 -
22.05.2019 12:00:00 21,0 12,0 11 6 SSO - 10 -
22.05.2019 11:00:00 19,6 12,6 9 5 O 1014,4 10 0,0
22.05.2019 10:00:00 18,0 13,0 13 7 O - 10 -
22.05.2019 09:00:00 17,0 13,0 11 6 O - 10 -
22.05.2019 08:00:00 15,9 11,7 8 4 OSO 1014,0 10 -
22.05.2019 07:00:00 13,0 11,0 4 2 - - 10 -
22.05.2019 06:00:00 13,0 11,0 8 4 - - 10 -
22.05.2019 05:00:00 13,8 10,8 4 2 - 1013,1 10 0,0
22.05.2019 04:00:00 15,0 11,0 8 4 ONO - 10 -
22.05.2019 03:00:00 15,0 11,0 8 4 O - 10 -
22.05.2019 02:00:00 15,3 11,3 8 4 ONO 1013,1 10 -
22.05.2019 01:00:00 16,0 11,0 9 5 ONO - 10 -
22.05.2019 00:00:00 17,0 11,0 8 4 - - 10 -
21.05.2019 23:00:00 17,3 12,2 8 4 ONO 1013,2 10 0,0
21.05.2019 22:00:00 18,0 12,0 11 6 SO - 10 -
21.05.2019 21:00:00 20,0 12,0 9 5 SO - 10 -
21.05.2019 20:00:00 21,7 11,8 11 6 OSO 1009,7 10 -
21.05.2019 19:00:00 23,0 13,0 15 8 OSO - 10 -
21.05.2019 18:00:00 24,0 14,0 15 8 O - 10 -
21.05.2019 17:00:00 23,8 12,8 13 7 OSO 1008,5 10 0,0
21.05.2019 16:00:00 24,0 14,0 15 8 OSO - 10 -
21.05.2019 15:00:00 23,0 14,0 13 7 O - 10 -
21.05.2019 14:00:00 21,9 14,1 13 7 OSO 1008,6 10 -
21.05.2019 13:00:00 20,0 14,0 16 9 O - 10 -
21.05.2019 12:00:00 19,0 14,0 13 7 O - 10 -
21.05.2019 11:00:00 18,4 13,4 9 5 O 1008,7 10 0,0
21.05.2019 10:00:00 17,0 13,0 15 8 O - 10 -
21.05.2019 09:00:00 15,0 11,0 15 8 O - 10 -
21.05.2019 08:00:00 15,4 11,7 11 6 ONO 1007,9 10 -
21.05.2019 07:00:00 13,0 11,0 9 5 O - 10 -
21.05.2019 06:00:00 13,0 11,0 9 5 O - 10 -
21.05.2019 05:00:00 13,3 11,4 9 5 O 1007,3 10 0,0
21.05.2019 04:00:00 14,0 11,0 9 5 ONO - 10 -
21.05.2019 03:00:00 - - - - - - - -
21.05.2019 02:00:00 14,1 10,8 9 5 O 1007,4 10 -
21.05.2019 01:00:00 15,0 11,0 9 5 O - 10 -
21.05.2019 00:00:00 15,0 11,0 9 5 O - 10 -
20.05.2019 23:00:00 15,1 10,6 15 8 OSO 1006,9 10 0,0
20.05.2019 22:00:00 15,0 11,0 11 6 O - 10 -
20.05.2019 21:00:00 16,0 12,0 9 5 O - 10 -
20.05.2019 20:00:00 16,2 11,9 9 5 SO 1006,2 10 -
20.05.2019 19:00:00 17,0 13,0 5 3 SO - 10 -
20.05.2019 18:00:00 16,0 14,0 4 2 - - 10 -
20.05.2019 17:00:00 16,7 13,6 9 5 SSO 1006,1 10 0,0
20.05.2019 16:00:00 17,0 13,0 5 3 SO - 10 -
20.05.2019 15:00:00 17,0 13,0 8 4 OSO - 8 -
20.05.2019 14:00:00 16,2 13,7 5 3 SSO 1006,0 6 -
20.05.2019 13:00:00 16,0 13,0 5 3 OSO - 6 -
20.05.2019 12:00:00 15,0 13,0 4 2 - - 6 -
20.05.2019 11:00:00 14,9 13,7 5 3 SO 1005,4 5 0,0
20.05.2019 10:00:00 15,0 13,0 5 3 SO - 5 -
20.05.2019 09:00:00 14,0 13,0 5 3 O - 5 -
20.05.2019 08:00:00 13,7 13,2 5 3 O 1004,5 3,5 -
20.05.2019 07:00:00 13,0 13,0 5 3 OSO - 2,5 -
20.05.2019 06:00:00 13,0 13,0 4 2 - - 2,5 -
20.05.2019 05:00:00 13,0 13,0 2 1 - - 3,5 -
20.05.2019 04:00:00 12,0 12,0 5 3 S - 7 -
20.05.2019 03:00:00 13,0 13,0 4 2 - - 6 -
20.05.2019 02:00:00 13,2 13,1 4 2 SSO 1004,8 6 -
20.05.2019 01:00:00 - - - - - - - -
20.05.2019 00:00:00 14,0 13,0 2 1 - - 10 -
19.05.2019 23:00:00 13,7 13,4 2 1 - 1005,7 10 0,0
19.05.2019 22:00:00 14,0 13,0 2 1 - - 10 -
19.05.2019 21:00:00 14,0 13,0 2 1 - - 10 -
19.05.2019 20:00:00 14,5 13,0 2 1 - 1005,2 10 -
19.05.2019 19:00:00 15,0 13,0 4 2 - - 10 -
19.05.2019 18:00:00 14,0 12,0 4 2 - - 7 -
19.05.2019 17:00:00 14,8 13,2 4 2 - 1005,1 10 0,0
19.05.2019 16:00:00 15,0 13,0 4 2 - - 8 -
19.05.2019 15:00:00 15,0 12,0 5 3 SE - 10 -
19.05.2019 14:00:00 14,5 12,7 2 1 - 1005,0 10 -
19.05.2019 13:00:00 14,0 13,0 2 1 - - 3,5 -
19.05.2019 12:00:00 14,0 13,0 5 3 O - 10 -
19.05.2019 11:00:00 13,6 12,7 4 2 ONO 1005,0 6 0,0
19.05.2019 10:00:00 13,0 13,0 2 1 - - 2,5 -
19.05.2019 09:00:00 13,0 13,0 4 2 S - 2,5 -
19.05.2019 08:00:00 12,4 12,2 4 2 - 1004,7 3,0 -

tt = Temperatura
td = dewpoint
ff = velocità del vento
dd = direzione del vento
ppp = reduced air pressure
vv = visibility
rr = precipitazioni

Stazioni seguenti

WeatherPro
AMSI
MeteoEarth